Regional Weather Roundup
Issued by NWS

Home | Current Version | Previous Version | Text Only | Print | Product List | Glossary Off
Versions: 1 2 3 4 5 6 7 8 9 10 11 12 13 14 15 16 17 18 19 20 21 22 23 24 25 26 27 28 29 30 31 32 33 34 35 36 37 38 39 40 41 42 43 44 45 46 47 48 49 50

979
ASUS45 KBOU 111107
RWRCO

WEATHER ROUNDUP FOR COLORADO
NATIONAL WEATHER SERVICE DENVER/BOULDER CO
400 AM MST THU FEB 11 2016

NOTE: "FAIR" INDICATES FEW OR NO CLOUDS BELOW 12000 FEET WITH NO
SIGNIFICANT WEATHER AND/OR OBSTRUCTIONS TO VISIBILITY.

COZ001>005-013-030-031-111200-
...NORTHWEST COLORADO...

CITY           SKY/WX    TMP DP  RH WIND       PRES   REMARKS
CRAIG          CLOUDY    -3  -8  79 CALM      30.38F
HAYDEN         CLOUDY    19   9  63 E14       30.35F WCI   6
MEEKER         CLOUDY    15   9  76 CALM      30.38S
MOUNT WERNER   NOT AVBL
STEAMBOAT SPGS CLOUDY    13  10  87 CALM      30.38S
WALDEN         CLOUDY    18   7  62 SE8       30.34F WCI   7
$$

COZ006>008-011-111200-
...WEST CENTRAL VALLEYS...

CITY           SKY/WX    TMP DP  RH WIND       PRES   REMARKS
GRAND JUNCTION CLOUDY    20  19  96 E7        30.40S WCI  11
MONTROSE       CLOUDY    20  14  77 S7        30.42S WCI  11
EAGLE          CLOUDY    14  12  92 CALM      30.45S
RIFLE          CLOUDY    15   9  76 S5        30.42S WCI   8
DELTA          CLOUDY    27  22  80 NE5       30.42S WCI  22
NUCLA          CLOUDY    25  16  68 E6        30.43R WCI  18
$$

COZ017>023-064>068-111200-
...SOUTHWEST COLORADO...

CITY           SKY/WX    TMP DP  RH WIND       PRES   REMARKS
DURANGO        CLOUDY    14  11  87 NE5       30.36S WCI   6
CORTEZ         CLOUDY    19  14  81 CALM      30.35F
PAGOSA SPRINGS CLOUDY    16  13  88 CALM      30.36F
TELLURIDE      CLOUDY    28   4  35 SE7       30.43S WCI  21
WOLF CREEK PAS CLOUDY    25  -6  26 CALM      30.49S
$$

COZ009-010-012-014-032>034-037-058>063-111200-
...CENTRAL COLORADO...

CITY           SKY/WX    TMP DP  RH WIND       PRES   REMARKS
ASPEN          CLOUDY    14   6  70 S5        30.39S WCI   6
BUENA VISTA    CLOUDY    22  14  72 E3        30.34F
COPPER MTN     CLOUDY    25   3  39 W12       30.43F WCI  14
BERTHOUD PASS  FAIR      14   3  62 NW32G40   30.36F WCI  -7
COTTONWOOD PAS CLOUDY    36   0  21 W6        30.37S
GUNNISON       CLOUDY    -9 N/A N/A NE5       30.50F WCI -21
KREMMLING      CLOUDY    -6  -9  84 CALM      30.45R
LEADVILLE      CLOUDY    20   2  45 NE10      30.38F WCI   9
MONARCH PASS   CLOUDY    21   0  39 SW22      30.52F WCI   5
SALIDA         NOT AVBL
SUNLIGHT       CLOUDY    30   9  40 CALM        N/A
WILKERSON PASS CLOUDY    28   0  29 NW10G25   30.39F WCI  19
$$

COZ069>075-111200-
...SAN LUIS VALLEY/SANGRE DE CRISTO MOUNTAINS...

CITY           SKY/WX    TMP DP  RH WIND       PRES   REMARKS
ALAMOSA        CLOUDY    16  12  84 CALM      30.36R
LA VETA PASS   CLOUDY    28   7  40 S8        30.36F WCI  20
SAGUACHE       CLOUDY    25  10  54 NW14      30.37S WCI  13
$$

COZ035-036-038>040-111200-
...NORTHERN COLORADO FRONT RANGE...

CITY           SKY/WX    TMP DP  RH WIND       PRES   REMARKS
DENVER INTL AP CLOUDY    30  20  66 S14       30.15F WCI  19
DMNS CITY PARK   N/A     36  16  45 S3G9      30.15F
AURORA         NOT AVBL
FRONT RANGE AP   N/A     32  19  59 S12       30.16F WCI  23
ERIE MUNI ARPT CLOUDY    33  21  61 SW6       30.13F WCI  27
BOULDER MUN AP CLOUDY    54  10  17 NW8       30.14S
CENTENNIAL     CLOUDY    37  14  38 S6        30.18F
BROOMFIELD     CLOUDY    46  10  23 SE5       30.16F
FORT COLLINS   CLOUDY    30  16  55 N6        30.14S WCI  24
LONGMONT       CLOUDY    31  20  65 CALM      30.15F
$$

COZ041-046-047-076>085-087-088-111200-
...PIKES PEAK/PALMER DIVIDE AND SOUTHERN FOOTHILLS...

CITY           SKY/WX    TMP DP  RH WIND       PRES   REMARKS
COLO. SPRINGS  CLOUDY    34  14  43 NE3       30.24F
A. F. ACADEMY  NOT AVBL
SCHRIEVER AFB  NOT AVBL
ELLICOTT       CLOUDY   N/A N/A N/A N6        30.21F
FALCON         NOT AVBL
FORT CARSON    NOT AVBL
LIMON          CLOUDY    16  12  84 N6        30.18F WCI   7
MONUMENT HILL  CLOUDY    28   9  43 SW12      30.24F WCI  18
TRINIDAD       CLEAR     28  13  53 W13       30.25R WCI  17
$$

COZ042>045-048>051-090-091-111200-
...NORTHEAST COLORADO...

CITY           SKY/WX    TMP DP  RH WIND       PRES   REMARKS
GREELEY ARPT   CLOUDY    27  21  80 CALM      30.15F
AKRON          CLOUDY    33  21  61 SW14      30.13F WCI  23
BURLINGTON     CLOUDY    30  21  69 W12       30.15F WCI  20
WRAY           NOT AVBL
STERLING       CLOUDY    30  27  86 SW7       30.12S WCI  23
HOLYOKE        CLOUDY    30  25  80 SW7       30.11F WCI  23
FORT MORGAN    CLOUDY    28  19  69 W7        30.14F WCI  21
$$

COZ086-089-092>099-111200-
...SOUTHEAST COLORADO...

CITY           SKY/WX    TMP DP  RH WIND       PRES   REMARKS
PUEBLO         CLOUDY    31  21  66 CALM      30.20F
LA JUNTA       CLOUDY    36  24  62 CALM      30.20F
LAMAR          CLOUDY    29  24  82 S10       30.18S WCI  20
SPRINGFIELD      N/A     29  20  69 NW9       30.19R WCI  20
$$




USA.gov is the U.S. government's official web portal to all federal, state and local government web resources and services.